Location: Kearney
(40.6990°N, 99.0810°W)
Time: 13:28:12
(UTC-06:00)

Daily predictions for brighter satellites

Satellite Brightness Start Highest point End
(mag) Time Altitude Azimuth Time Altitude Azimuth Time Altitude Azimuth
SKYMED 2 3.6 18:40:22 10° NNE 18:44:45 81° ESE 18:49:04 10° S
Cosmos 44 4.0 18:42:03 10° NW 18:46:20 51° WSW 18:50:30 10° SSE
COSMOS 2428 4.0 18:46:03 10° N 18:50:13 20° NE 18:54:22 10° E
METEOR-M 4.3 18:45:20 10° SE 18:50:29 52° ENE 18:55:39 10° N
Cosmos 1536 4.4 18:48:29 10° ESE 18:50:52 16° E 18:53:15 10° NE
H-2A R/B 4.5 18:49:28 10° E 18:51:18 13° ENE 18:53:08 10° NE
Cosmos 1633 3.3 18:51:49 10° SSE 18:55:07 31° E 18:58:25 10° NNE
Okean 1 3.3 18:51:31 10° N 18:55:33 63° E 18:59:34 10° SSE
Cosmos 1812 2.9 18:51:56 10° N 18:55:47 79° W 18:59:38 10° S
Cosmos 1536 Rocket 3.6 18:55:19 10° N 18:59:44 58° E 19:04:08 10° SSE
ASTRO F (AKARI) 4.4 18:59:06 10° NNE 19:02:41 84° ESE 19:06:03 10° SSW
Cosmos 1818 3.7 19:00:27 10° SW 19:05:53 80° WNW 19:11:23 10° NNE
Cosmos 407 Rocket 3.9 19:01:35 10° SSW 19:06:48 71° WNW 19:12:07 10° NNE
Cosmos 2360 Rocket 2.3 19:04:18 10° NNW 19:09:53 56° ENE 19:15:26 10° SE
Cosmos 2219 Rocket 3.7 19:07:32 10° N 19:11:08 17° NE 19:13:35 13° E
Cosmos 2219 4.0 19:06:24 10° SSE 19:11:13 28° ESE 19:16:03 10° NE
Cosmos 676 Rocket 4.0 19:06:14 10° SSW 19:11:25 88° ESE 19:16:40 10° NNE
Meteor 1-11 Rocket 3.8 19:15:29 10° S 19:21:07 59° E 19:26:56 10° NNE
Cosmos 1461 4.3 19:17:22 10° NW 19:21:09 39° WSW 19:25:00 10° S
BREEZE-M DEB (TANK) 3.4 19:18:15 10° SSW 19:22:32 34° SSE 19:23:46 22° E
Cosmos 1602 3.6 19:20:34 10° S 19:24:25 73° E 19:28:20 10° NNE
Cosmos 1140 Rocket 3.4 19:21:07 10° S 19:26:13 73° ESE 19:31:22 10° NNE
Resurs 01 Rocket 1.9 19:22:37 10° SE 19:26:47 43° ENE 19:30:58 10° N
DELTA 2 R/B (1) 4.0 19:21:24 10° W 19:26:55 58° SSW 19:31:31 15° ESE
Cosmos 1300 Rocket 3.5 19:23:21 10° S 19:27:44 74° E 19:32:11 10° NNE
Abrixas rocket 3.5 19:26:02 10° SSW 19:28:51 25° SE 19:29:39 23° ESE
ATLAS CENTAUR R/B 3.6 19:28:10 10° S 19:30:33 14° SE 19:30:46 14° SE
BREEZE-M DEB (TANK) 3.8 19:27:50 10° NW 19:30:48 43° NNE 19:35:01 19° E
Cosmos 614 Rocket 3.9 19:28:55 10° S 19:33:56 64° ESE 19:38:57 10° NNE
ALOS 2.2 19:31:02 10° SSE 19:35:41 73° ENE 19:40:22 10° N
FREGAT/IRIS 3.5 19:34:27 10° S 19:37:27 53° W 19:40:30 10° NNW
Cosmos 1833 4.4 19:32:33 10° SSW 19:38:14 73° WNW 19:43:54 10° NNE
Spot 2 Rocket 3.4 19:36:44 10° SSE 19:41:42 63° ENE 19:46:43 10° N
Cosmos 1340 3.4 19:38:09 10° NNW 19:41:52 54° W 19:45:33 10° S
Helios 1A 3.6 19:40:56 28° E 19:41:58 32° ENE 19:45:42 10° N
Cosmos 2181 Rocket 4.1 19:37:14 10° N 19:43:30 83° W 19:49:50 10° S
Resurs 1-3 3.6 19:40:11 10° SSE 19:44:28 57° ENE 19:48:47 10° N
Cosmos 2333 Rocket 3.3 19:40:32 10° N 19:45:14 25° NE 19:46:14 24° ENE
Cosmos 2208 Rocket 4.1 19:40:21 10° NNW 19:45:44 58° ENE 19:50:30 13° SE
SL-16 R/B 4.3 19:41:40 10° NW 19:46:25 28° WSW 19:51:09 10° SSW
USA 229 DEB 4.1 19:43:49 10° NNW 19:50:42 49° NE 19:54:32 26° ESE
USA 229 4.1 19:43:55 10° NNW 19:50:48 49° NE 19:54:36 26° ESE
Cosmos 1850 Rocket 3.9 19:48:21 10° SSW 19:53:38 81° ESE 19:59:00 10° NNE
Helios 1B rocket 2.8 19:50:47 10° NNE 19:54:43 41° E 19:58:38 10° S
HJ-1C 4.0 19:52:30 10° S 19:55:48 57° W 19:59:08 10° NNW
Tiangong 2 3.6 19:55:09 10° WSW 19:57:05 15° SW 19:58:32 12° S
Cosmos 2074 Rocket 3.9 19:51:40 10° S 19:57:51 70° E 20:04:07 10° NNE
Envisat 3.9 19:58:41 29° ENE 19:58:41 29° ENE 20:02:31 10° N
Okean 2 3.8 19:54:40 10° N 19:58:14 40° ENE 19:58:14 40° ENE
SJ-6B 4.5 19:55:24 10° SSW 19:59:07 36° W 20:02:46 10° NNW
SAR-Lupe-1 4.4 20:00:38 46° NE 20:00:38 46° NE 20:03:35 10° N
Cosmos 2184 Rocket 3.9 19:54:37 10° S 20:00:54 71° E 20:07:08 10° NNE
FengYun 1-2 T 4.5 19:56:01 10° S 20:01:28 71° WSW 20:06:58 10° NNW
Genesis I 3.0 19:58:17 10° NNW 20:02:14 83° ENE 20:03:08 52° SE
Okean 1 Rocket 3.6 19:58:17 10° SSW 20:02:42 60° W 20:07:10 10° N
SAR-Lupe-4 3.4 20:04:46 71° ESE 20:04:56 73° ENE 20:08:30 10° N
Cosmos 1892 Rocket 4.5 20:03:44 10° N 20:06:29 31° NE 20:06:29 31° NE
Meteor 1-5 Rocket 4.2 20:02:25 10° S 20:08:22 76° E 20:14:18 10° NNE
FENGYUN 3A 4.2 20:03:14 10° S 20:08:33 59° W 20:13:55 10° NNW
Intercosmos 24 4.4 20:11:28 10° S 20:15:37 83° W 20:21:37 10° N
BREEZE-M DEB (TANK) 2.6 20:13:12 10° WNW 20:16:02 84° SSW 20:17:20 48° SE
Gbstr 26 Del rocket 3.3 20:15:25 10° WSW 20:19:04 47° NNW 20:19:28 44° N
CZ-2D R/B 3.5 20:18:53 42° SSW 20:20:00 67° WSW 20:23:49 10° NNW
Nadezhda 3 Rocket 4.1 20:15:00 10° N 20:20:59 50° ENE 20:21:26 49° E
GPS 2-04 Rocket1 3.9 20:17:35 10° SW 20:21:00 34° S 20:21:00 34° S
Cosmos 405 Rocket 4.2 20:18:12 10° N 20:20:17 28° N 20:20:17 28° N
Cosmos 1025 Rocket 3.3 20:18:17 10° NNW 20:22:38 67° W 20:25:44 19° S
NOSS 3-1 (C) 4.5 20:15:54 10° NNW 20:22:53 40° NE 20:24:22 37° ENE
H-2A R/B 3.9 20:21:42 10° S 20:25:12 40° W 20:28:46 10° NNW
GEOS 3 Rocket 4.2 20:20:50 13° NNE 20:25:25 56° NW 20:30:34 10° SW
Cosmos 1536 4.4 20:23:20 10° SW 20:26:59 34° WNW 20:30:40 10° N
Cosmos 2154 Rocket 3.9 20:23:38 10° S 20:29:53 63° E 20:36:08 10° NNE
Cosmos 2285 Rocket 3.9 20:23:26 10° NNW 20:29:56 87° ENE 20:32:47 36° SSE
COSMOS 2428 3.0 20:29:20 10° NNW 20:34:59 64° WSW 20:37:44 30° S
Meteor 2-13 Rocket 4.3 20:29:01 10° S 20:35:04 87° E 20:41:12 10° N
Cosmos 2333 4.3 20:30:35 10° NNW 20:36:18 73° WSW 20:38:23 40° S
Cosmos 2237 Rocket 2.9 20:33:31 10° NNW 20:37:45 40° NNE 20:37:45 40° NNE
NOSS 0 Rocket 3.8 20:46:37 10° NNW 20:52:28 78° NNE 20:52:28 78° NNE
Cosmos 2219 4.4 20:49:45 10° SW 20:55:09 41° WNW 21:00:35 10° N
Cosmos 2219 Rocket 2.2 20:50:07 10° NNW 20:55:22 74° WNW 20:55:22 74° WNW
Resurs 01 Rocket 4.4 21:00:38 10° SW 21:03:27 17° W 21:06:17 10° NW
SL-16 R/B 4.0 21:07:14 10° N 21:09:14 21° N 21:09:14 21° N
Cosmos 2333 Rocket 3.3 21:24:14 10° NNW 21:28:17 41° WNW 21:28:17 41° WNW
ATLAS 2AS CENTAUR R/B 4.3 21:53:12 10° NNW 21:57:44 29° N 21:57:44 29° N
